Precipitable_Water
0.35 0.31 0.28 0.31 0.33 0.32 0.32 0.31 0.33 0.37 0.39 0.39 0.36 0.39 0.44 0.49 0.54 0.53 0.56 0.61 0.66 0.71 0.80 0.80 0.80 0.77 0.77 0.75 0.68 0.67 0.65 0.69 0.68 0.66 0.60 0.59 0.67 0.86 0.98 1.12 1.18 1.19 1.20 1.19
0.32 0.29 0.34 0.36 0.36 0.32 0.32 0.31 0.32 0.37 0.39 0.37 0.39 0.39 0.45 0.48 0.54 0.56 0.55 0.61 0.67 0.72 0.74 0.78 0.79 0.78 0.77 0.71 0.72 0.70 0.70 0.74 0.72 0.72 0.73 0.70 0.63 0.63 0.65 0.77 0.88 1.04 1.19 1.30
0.29 0.32 0.37 0.35 0.34 0.34 0.33 0.29 0.28 0.27 0.32 0.37 0.35 0.32 0.39 0.47 0.53 0.60 0.61 0.64 0.67 0.68 0.70 0.73 0.72 0.75 0.76 0.72 0.73 0.77 0.76 0.78 0.76 0.74 0.73 0.74 0.76 0.74 0.68 0.66 0.66 0.71 0.78 0.95
0.34 0.38 0.37 0.36 0.33 0.33 0.26 0.32 0.28 0.26 0.23 0.19 0.29 0.21 0.28 0.38 0.45 0.53 0.55 0.61 0.65 0.68 0.72 0.71 0.68 0.68 0.68 0.67 0.78 0.79 0.76 0.73 0.76 0.79 0.74 0.70 0.66 0.61 0.60 0.58 0.58 0.58 0.63 0.65
0.33 0.35 0.35 0.35 0.38 0.37 0.33 0.36 0.27 0.24 0.21 0.20 0.22 0.20 0.28 0.41 0.40 0.48 0.58 0.64 0.67 0.70 0.69 0.65 0.64 0.64 0.62 0.63 0.68 0.72 0.75 0.77 0.79 0.80 0.79 0.74 0.65 0.66 0.64 0.61 0.60 0.60 0.61 0.63
0.39 0.43 0.43 0.41 0.44 0.41 0.41 0.36 0.31 0.24 0.22 0.19 0.24 0.25 0.34 0.41 0.49 0.55 0.62 0.65 0.67 0.68 0.66 0.63 0.63 0.62 0.59 0.61 0.61 0.65 0.65 0.65 0.67 0.67 0.67 0.66 0.65 0.63 0.64 0.65 0.61 0.58 0.58 0.61
0.40 0.40 0.44 0.46 0.42 0.48 0.42 0.28 0.16 0.13 0.20 0.20 0.28 0.30 0.37 0.48 0.55 0.57 0.59 0.62 0.63 0.64 0.60 0.61 0.58 0.54 0.53 0.55 0.58 0.58 0.57 0.55 0.53 0.55 0.56 0.61 0.63 0.66 0.69 0.70 0.70 0.69 0.65 0.68
0.34 0.30 0.40 0.45 0.42 0.37 0.32 0.26 0.18 0.12 0.14 0.18 0.29 0.28 0.38 0.51 0.54 0.55 0.58 0.59 0.60 0.59 0.59 0.55 0.51 0.48 0.50 0.53 0.54 0.54 0.52 0.49 0.54 0.58 0.60 0.63 0.65 0.65 0.67 0.70 0.73 0.75 0.76 0.74
0.36 0.36 0.45 0.42 0.40 0.39 0.28 0.24 0.31 0.24 0.26 0.20 0.25 0.33 0.43 0.49 0.48 0.49 0.50 0.54 0.53 0.51 0.48 0.48 0.47 0.47 0.50 0.52 0.54 0.53 0.52 0.53 0.57 0.61 0.63 0.62 0.63 0.63 0.62 0.65 0.69 0.69 0.73 0.76
0.45 0.32 0.36 0.37 0.40 0.38 0.29 0.34 0.23 0.27 0.20 0.17 0.22 0.26 0.30 0.37 0.41 0.46 0.47 0.47 0.46 0.45 0.47 0.48 0.47 0.49 0.53 0.54 0.54 0.53 0.57 0.61 0.64 0.62 0.62 0.62 0.64 0.69 0.74 0.75 0.75 0.78 0.80 0.82
0.45 0.36 0.28 0.38 0.35 0.31 0.32 0.31 0.29 0.30 0.30 0.21 0.19 0.20 0.36 0.39 0.42 0.42 0.44 0.45 0.45 0.46 0.48 0.49 0.47 0.53 0.54 0.54 0.54 0.58 0.65 0.65 0.63 0.63 0.67 0.69 0.74 0.77 0.79 0.79 0.80 0.79 0.79 0.79
0.46 0.37 0.25 0.27 0.37 0.42 0.34 0.31 0.34 0.27 0.23 0.28 0.26 0.23 0.39 0.41 0.41 0.43 0.45 0.46 0.47 0.50 0.52 0.48 0.47 0.52 0.51 0.51 0.57 0.64 0.66 0.68 0.68 0.71 0.75 0.77 0.78 0.78 0.77 0.77 0.77 0.79 0.81 0.85
0.43 0.31 0.21 0.20 0.32 0.38 0.36 0.40 0.39 0.37 0.34 0.25 0.22 0.23 0.42 0.44 0.44 0.47 0.45 0.46 0.49 0.49 0.45 0.44 0.49 0.48 0.49 0.54 0.61 0.64 0.67 0.68 0.72 0.77 0.78 0.76 0.76 0.75 0.74 0.74 0.74 0.76 0.77 0.78
0.47 0.34 0.27 0.20 0.25 0.37 0.33 0.37 0.40 0.37 0.31 0.28 0.28 0.28 0.37 0.41 0.43 0.46 0.47 0.46 0.45 0.40 0.42 0.47 0.47 0.48 0.50 0.57 0.63 0.64 0.68 0.73 0.77 0.80 0.80 0.80 0.78 0.77 0.75 0.76 0.76 0.76 0.77 0.76
0.41 0.29 0.31 0.31 0.31 0.32 0.31 0.32 0.33 0.32 0.31 0.26 0.30 0.33 0.39 0.43 0.42 0.42 0.39 0.35 0.37 0.41 0.45 0.45 0.44 0.45 0.49 0.61 0.62 0.67 0.71 0.74 0.78 0.79 0.80 0.77 0.78 0.78 0.77 0.77 0.76 0.77 0.78 0.77
0.46 0.31 0.35 0.29 0.32 0.35 0.31 0.31 0.33 0.37 0.37 0.37 0.38 0.36 0.46 0.47 0.46 0.35 0.34 0.36 0.39 0.41 0.42 0.42 0.42 0.46 0.57 0.60 0.64 0.67 0.70 0.73 0.77 0.78 0.76 0.77 0.77 0.78 0.79 0.78 0.76 0.77 0.76 0.77
0.43 0.37 0.34 0.26 0.34 0.32 0.23 0.27 0.34 0.37 0.40 0.39 0.35 0.41 0.46 0.37 0.31 0.32 0.35 0.40 0.41 0.42 0.38 0.41 0.44 0.52 0.59 0.63 0.67 0.68 0.71 0.76 0.78 0.76 0.78 0.79 0.81 0.81 0.81 0.81 0.80 0.78 0.76 0.77
0.41 0.42 0.41 0.30 0.33 0.20 0.32 0.44 0.44 0.42 0.42 0.44 0.46 0.47 0.45 0.39 0.37 0.41 0.45 0.42 0.42 0.39 0.41 0.44 0.47 0.58 0.63 0.68 0.70 0.71 0.73 0.76 0.76 0.77 0.78 0.82 0.83 0.82 0.84 0.84 0.83 0.81 0.82 0.78
0.48 0.43 0.36 0.29 0.28 0.32 0.36 0.38 0.41 0.40 0.41 0.50 0.48 0.50 0.45 0.42 0.39 0.40 0.45 0.46 0.42 0.43 0.46 0.45 0.59 0.62 0.68 0.71 0.74 0.74 0.74 0.76 0.77 0.77 0.78 0.82 0.85 0.82 0.84 0.83 0.82 0.83 0.83 0.81
0.52 0.49 0.40 0.36 0.29 0.25 0.36 0.48 0.51 0.50 0.35 0.55 0.53 0.46 0.41 0.38 0.25 0.36 0.45 0.47 0.46 0.46 0.42 0.54 0.61 0.66 0.72 0.77 0.76 0.72 0.71 0.72 0.73 0.77 0.81 0.88 0.90 0.88 0.88 0.88 0.84 0.82 0.82 0.77
0.43 0.42 0.35 0.36 0.35 0.38 0.48 0.54 0.56 0.35 0.37 0.54 0.52 0.46 0.41 0.34 0.41 0.45 0.48 0.47 0.45 0.40 0.47 0.60 0.64 0.68 0.76 0.76 0.73 0.71 0.71 0.69 0.76 0.83 0.86 0.90 0.94 0.93 0.93 0.93 0.91 0.86 0.82 0.80
0.41 0.39 0.37 0.40 0.36 0.31 0.57 0.54 0.44 0.49 0.57 0.56 0.55 0.46 0.41 0.45 0.46 0.45 0.46 0.41 0.37 0.37 0.53 0.61 0.66 0.73 0.75 0.75 0.73 0.70 0.68 0.73 0.79 0.84 0.86 0.90 0.94 0.96 0.95 0.93 0.93 0.91 0.84 0.76
0.41 0.46 0.42 0.44 0.40 0.53 0.59 0.56 0.59 0.59 0.54 0.55 0.51 0.49 0.49 0.47 0.44 0.44 0.38 0.36 0.37 0.42 0.56 0.63 0.71 0.72 0.72 0.74 0.74 0.70 0.70 0.73 0.76 0.81 0.82 0.90 0.95 0.97 0.96 0.94 0.92 0.89 0.85 0.81
0.49 0.55 0.44 0.44 0.46 0.50 0.55 0.60 0.61 0.62 0.60 0.59 0.56 0.53 0.52 0.46 0.44 0.38 0.35 0.36 0.36 0.45 0.55 0.66 0.74 0.72 0.69 0.71 0.74 0.74 0.73 0.74 0.76 0.77 0.81 0.90 0.94 0.95 0.97 0.97 0.97 0.94 0.90 0.91
0.48 0.50 0.44 0.40 0.46 0.51 0.55 0.60 0.63 0.63 0.65 0.62 0.59 0.56 0.49 0.46 0.41 0.36 0.36 0.35 0.37 0.45 0.58 0.68 0.73 0.73 0.73 0.77 0.77 0.80 0.77 0.76 0.75 0.77 0.82 0.89 0.93 0.95 0.95 0.98 0.97 0.96 0.98 0.95
0.49 0.43 0.37 0.33 0.47 0.47 0.50 0.60 0.65 0.62 0.62 0.62 0.57 0.50 0.49 0.44 0.39 0.39 0.36 0.36 0.38 0.44 0.59 0.67 0.74 0.73 0.76 0.79 0.80 0.83 0.80 0.78 0.75 0.75 0.81 0.89 0.93 0.96 0.96 0.96 0.96 1.03 1.01 1.00
Wind_Speed
4 4 3 5 5 4 3 5 5 7 9 7 10 11 12 13 11 11 11 10 11 12 13 13 17 19 21 24 25 25 26 26 26 26 26 27 28 29 31 30 30 31 32 33
4 3 5 4 4 5 6 7 11 12 12 8 9 14 15 14 15 14 13 12 13 14 14 17 20 22 25 28 29 29 28 28 28 28 29 30 30 32 33 33 34 35 36 35
3 4 4 4 7 8 9 8 12 14 16 14 13 15 14 15 15 14 14 14 15 15 17 20 23 26 28 30 30 30 30 30 31 32 34 34 35 35 35 37 39 41 42 40
2 5 3 5 7 8 10 12 13 15 12 13 13 17 17 16 14 15 15 15 15 16 19 21 26 27 29 31 30 31 33 35 36 37 39 40 41 41 41 40 40 40 41 41
8 5 6 7 9 9 9 12 13 12 12 10 8 9 13 10 11 13 13 13 14 16 19 23 25 26 28 30 32 34 37 38 40 42 43 44 44 42 40 39 37 36 37 40
7 7 8 8 8 8 11 13 15 11 6 5 8 6 10 10 11 11 11 12 15 17 21 24 27 29 32 34 36 37 38 40 42 44 45 44 44 42 39 38 35 35 35 35
8 7 7 7 9 12 14 12 10 8 6 7 10 6 8 8 6 8 10 13 15 19 23 27 30 33 35 36 38 40 41 43 44 42 42 41 39 37 35 35 33 34 34 32
5 10 9 9 8 10 11 8 5 7 7 10 10 6 8 8 7 9 11 13 18 22 26 29 32 35 36 38 39 41 43 42 42 41 39 38 37 36 36 36 35 35 35 35
7 10 10 9 9 9 12 9 8 6 9 8 8 7 9 10 10 13 14 17 21 25 28 31 32 34 36 38 40 41 42 43 41 41 41 42 42 41 41 40 39 37 35 34
9 10 11 10 9 10 7 8 8 9 8 9 9 8 10 12 15 15 16 19 23 27 28 30 34 36 38 40 41 42 44 43 44 45 44 44 42 39 36 34 32 31 30 30
10 9 12 11 9 11 10 10 8 9 8 8 9 11 12 15 14 15 18 21 25 26 30 33 36 37 39 41 43 44 44 45 45 45 44 41 37 36 35 35 35 35 35 34
11 9 11 12 14 11 9 9 9 8 10 9 10 14 14 12 14 16 20 24 27 28 32 36 37 38 40 42 43 43 43 43 42 41 38 37 36 37 37 37 37 36 35 33
10 9 9 12 10 9 10 11 10 10 10 11 10 14 13 14 16 20 23 26 28 31 34 36 37 39 41 42 41 41 41 41 38 37 37 37 37 37 36 35 35 33 31 30
8 8 8 9 11 12 14 14 15 11 11 14 15 17 17 18 20 23 26 27 31 34 35 36 38 40 42 39 39 40 41 38 38 39 39 38 37 36 34 32 31 29 29 28
7 9 10 13 14 15 16 17 17 15 15 13 16 13 15 17 21 25 27 29 32 34 35 37 39 42 38 37 38 39 38 39 38 38 36 35 34 32 30 30 28 27 26 25
10 11 11 13 15 15 16 17 17 16 11 11 12 14 16 19 23 24 27 30 32 34 35 38 41 40 35 36 37 37 37 38 37 35 34 32 30 29 28 26 24 24 23 23
10 10 10 12 13 15 15 12 11 11 12 11 13 15 17 20 24 25 28 31 32 34 37 39 41 35 34 36 36 35 36 35 33 32 31 29 29 28 26 23 21 20 18 18
10 9 9 12 13 11 13 12 11 9 11 12 13 15 17 21 24 25 28 30 32 34 38 40 37 32 34 34 34 34 33 32 29 30 28 27 28 27 25 23 19 16 14 13
11 9 11 10 11 16 16 13 11 11 13 13 13 16 19 22 23 25 28 30 32 36 38 38 32 33 34 34 33 32 30 28 27 27 27 27 28 27 25 23 20 16 13 10
11 11 10 11 12 13 13 12 11 11 14 13 14 17 20 21 23 26 29 30 33 37 37 33 31 33 32 33 32 29 25 24 25 26 26 27 28 27 25 23 20 15 13 10
12 13 13 12 14 15 15 10 11 10 15 13 15 18 18 20 22 26 28 30 34 35 34 30 32 31 32 30 27 25 24 23 24 25 26 27 29 29 25 23 19 16 12 9
14 13 13 12 13 16 10 10 11 14 15 15 17 16 18 19 22 26 28 31 33 35 31 29 30 31 29 26 25 24 23 23 23 24 25 27 29 27 27 23 19 16 12 9
14 15 13 13 15 16 14 14 15 15 15 16 15 16 17 20 23 25 28 29 32 33 30 28 28 29 27 25 24 23 23 22 22 23 24 26 27 27 26 25 20 17 14 11
15 14 15 15 17 17 17 17 16 15 15 15 15 16 18 20 23 24 27 28 31 31 28 25 26 26 25 24 24 23 22 22 21 21 23 24 25 25 25 24 22 20 15 13
18 16 16 18 19 17 18 18 16 15 14 14 15 17 19 20 22 23 25 27 30 29 26 23 24 23 22 23 24 23 22 21 21 20 21 23 23 23 23 23 23 22 19 17
21 21 20 21 20 18 20 18 16 15 16 16 17 18 18 19 20 22 24 26 30 28 23 21 22 21 21 23 24 23 22 21 20 19 20 22 22 22 23 23 23 22 20 18
Wind_Direction
302 326 287 285 295 314 304 303 303 304 313 287 260 250 259 258 263 258 267 273 283 293 299 305 310 314 317 319 319 317 317 316 315 312 313 314 304 297 292 289 287 284 281 276
305 277 283 318 327 334 321 312 299 282 305 294 264 268 267 274 266 259 263 272 280 291 297 303 307 311 312 314 314 314 313 313 312 310 308 307 308 302 294 290 287 283 278 276
240 255 308 321 328 316 307 309 301 286 284 281 278 283 267 275 262 265 272 276 284 289 296 303 307 310 311 312 312 313 312 311 311 309 306 304 302 301 294 291 289 283 279 274
269 285 315 333 324 313 307 302 304 297 296 276 276 273 277 263 261 262 266 275 284 293 302 306 309 312 313 313 313 313 312 311 311 309 306 304 302 299 295 293 290 284 277 275
285 284 299 316 313 313 299 315 314 303 289 291 288 283 284 272 257 261 272 279 292 299 304 312 316 315 317 318 316 313 312 311 310 308 306 305 303 301 298 295 290 286 283 278
293 290 297 293 304 325 319 320 317 318 299 292 293 284 297 274 263 270 275 284 291 305 311 314 315 314 315 314 315 313 312 311 309 308 306 304 302 300 297 294 290 289 287 283
322 314 307 305 312 317 331 334 325 326 320 261 310 315 276 287 270 273 276 286 300 306 311 312 313 313 312 312 313 312 312 312 310 309 308 306 304 301 297 295 293 291 288 283
297 308 307 302 304 307 317 319 311 305 303 292 307 284 272 275 287 292 292 296 302 307 307 309 311 312 313 313 314 314 313 313 312 311 309 307 304 300 297 295 294 292 287 285
303 302 308 303 302 314 315 318 299 308 305 305 284 293 292 279 284 293 296 297 303 306 310 312 313 315 316 317 316 316 316 314 313 310 308 305 302 298 295 292 290 288 287 285
297 305 307 300 303 309 308 305 316 316 303 299 289 287 283 282 291 302 304 308 311 313 315 316 317 317 317 318 317 316 315 313 310 308 306 305 303 300 297 296 293 290 289 287
306 300 298 301 298 298 301 303 311 305 291 279 291 288 283 291 300 303 305 307 312 315 316 317 318 319 319 319 318 317 315 313 312 310 308 306 303 300 297 294 291 288 286 284
300 294 295 288 287 294 291 285 296 300 292 286 284 293 301 301 305 307 308 313 315 317 318 319 320 319 320 319 318 318 319 318 317 315 312 309 305 302 298 295 292 288 283 280
290 297 307 316 315 302 302 293 292 294 297 280 288 295 303 307 311 310 313 316 317 317 320 321 321 321 321 321 321 322 323 322 321 319 316 313 309 305 301 297 293 287 284 280
294 286 279 281 289 295 295 293 291 284 288 287 282 291 304 310 312 313 316 317 317 320 323 323 323 323 323 323 324 325 325 325 323 320 318 315 312 308 303 301 296 289 283 280
289 285 291 292 291 293 293 290 289 280 281 284 295 298 305 311 312 315 318 320 322 323 324 325 325 325 325 326 327 327 328 328 326 326 325 322 318 315 310 303 297 293 286 281
287 290 298 301 300 300 299 294 288 289 286 286 294 301 305 309 313 318 320 322 324 325 326 327 327 327 327 328 328 329 330 331 331 330 329 331 331 327 321 312 303 295 288 279
269 280 299 299 308 313 309 301 292 285 288 288 295 299 305 313 319 319 323 325 327 328 329 328 329 328 329 330 331 332 333 335 336 338 338 337 337 337 333 327 318 306 294 285
263 275 288 295 313 313 299 304 301 288 292 296 303 307 311 316 320 322 326 327 329 329 330 331 330 330 331 332 332 334 335 338 340 343 345 346 345 343 342 339 334 326 313 291
258 272 291 297 302 306 309 302 293 292 296 297 302 309 315 319 321 324 328 330 330 332 332 333 333 334 334 333 334 334 337 340 343 346 348 348 348 347 347 343 338 335 328 309
262 269 278 291 298 300 304 307 305 305 299 298 305 310 314 319 325 323 328 332 334 334 335 336 336 335 336 336 338 340 342 344 348 349 349 350 350 349 347 347 347 344 339 328
261 269 264 278 286 301 301 301 305 311 299 299 306 312 316 321 323 326 330 333 334 336 338 337 338 338 338 340 344 346 347 348 349 352 352 351 351 350 350 352 353 349 350 347
253 255 268 276 283 294 291 302 297 297 301 302 310 312 319 324 327 329 331 334 337 339 338 338 340 341 342 344 346 347 347 347 349 352 354 356 358 1 3 2 4 10 7 11
257 254 268 264 277 288 282 292 298 300 302 305 308 315 320 324 326 330 332 336 339 340 339 340 343 346 348 347 348 348 349 349 350 353 356 358 360 4 9 15 14 15 17 23
261 259 269 282 284 282 282 291 294 297 301 302 307 313 318 323 327 331 335 337 340 340 340 341 345 348 351 355 355 354 354 353 354 355 358 2 5 9 12 14 18 19 15 11
256 267 269 275 282 283 289 286 288 290 296 300 305 310 316 323 328 332 336 338 341 341 341 342 346 350 352 354 355 354 355 356 357 358 1 3 5 8 11 14 18 20 18 18
257 263 269 272 272 276 283 285 283 285 289 294 302 310 318 323 328 333 336 339 342 342 340 341 345 348 351 353 355 355 356 357 355 359 3 8 11 11 10 12 13 15 16 18